Regional Weather Roundup
Issued by NWS

Home | Current Version | Previous Version | Graphics & Text | Print | Product List | Glossary On
Versions: 1 2 3 4 5 6 7 8 9 10 11 12 13 14 15 16 17 18 19 20 21 22 23 24 25 26 27 28 29 30 31 32 33 34 35 36 37 38 39 40 41 42 43 44 45 46 47 48 49 50
000
ASUS43 KLMK 291010
RWRKY
KENTUCKY REGIONAL WEATHER ROUNDUP
NATIONAL WEATHER SERVICE LOUISVILLE KY
600 AM EDT SAT APR 29 2017

NOTE "FAIR" INDICATES FEW OR NO CLOUDS BELOW 12,000 FEET
WITH NO SIGNIFICANT WEATHER AND/OR OBSTRUCTIONS TO VISIBILITY.

KYZ001>023-026-027-061>063-070>075-291100-
WESTERN AND SOUTH CENTRAL KENTUCKY

CITY           SKY/WX    TMP DP  RH WIND       PRES   REMARKS
PADUCAH        CLOUDY    76  67  73 S10       29.83R
HENDERSON        N/A    N/A N/A N/A MISG        N/A
OWENSBORO      CLOUDY    72  66  81 S12       29.88S
HOPKINSVILLE   CLOUDY    73  68  82 S9        29.91R
BOWLING GREEN  CLOUDY    75  69  81 SE10      29.95S
GLASGOW        CLOUDY    74  65  74 S7        29.98S
$$

KYZ024-025-028>034-038-045-046-053-291100-
NORTH CENTRAL KENTUCKY

CITY           SKY/WX    TMP DP  RH WIND       PRES   REMARKS
LOUISVILLE/SDF CLOUDY    67  65  93 SE10      29.93S
LOUISVILLE/LOU NOT AVBL
FORT KNOX      CLOUDY    68  64  88 E8        29.92F
$$

KYZ035>037-039>044-047>052-055>060-089>105-291100-
NORTHEAST KENTUCKY

CITY           SKY/WX    TMP DP  RH WIND       PRES   REMARKS
LEXINGTON      LGT RAIN  65  61  87 SE7       30.02F
COVINGTON      CLOUDY    64  62  93 SW10G21   29.96R
FRANKFORT      CLOUDY    65  60  84 SE7       29.97F
$$

KYZ054-064>069-076>088-106>120-291100-
SOUTHEAST KENTUCKY

CITY           SKY/WX    TMP DP  RH WIND       PRES   REMARKS
JACKSON        CLOUDY    73  63  70 CALM      30.08R
LONDON         CLOUDY    64  61  90 CALM      30.08R
SOMERSET       CLOUDY    68  63  83 CALM      30.07R
MIDDLESBORO    MOCLDY    72  65  77 SE5       30.09R
MONTICELLO     CLOUDY    71  66  84 SE5       30.07R
$$





USA.gov is the U.S. government's official web portal to all federal, state and local government web resources and services.